Regional Weather Roundup
Issued by NWS

Home | Current Version | Previous Version | Text Only | Print | Product List | Glossary Off
Versions: 1 2 3 4 5 6 7 8 9 10 11 12 13 14 15 16 17 18 19 20 21 22 23 24 25 26 27 28 29 30 31 32 33 34 35 36 37 38 39 40 41 42 43 44 45 46 47 48 49 50

000
ASUS43 KTOP 270108
RWRKS

WEATHER ROUNDUP FOR KANSAS
NATIONAL WEATHER SERVICE GOODLAND KS
800 PM CDT FRI MAY 26 2017

NOTE:  "FAIR" INDICATES FEW OR NO CLOUDS BELOW 12,000 FEET WITH NO
SIGNIFICANT WEATHER AND/OR OBSTRUCTIONS TO VISIBILITY.

KSZ001>006-013>018-027>032-041>047-270200-
NORTHWEST KANSAS

CITY           SKY/WX    TMP DP  RH WIND       PRES   REMARKS
GOODLAND       CLOUDY    69  53  56 E14       29.82F
HAYS           CLOUDY    76  59  55 E10       29.83S
HILL CITY      CLEAR     76  53  44 SE7       29.83F
RUSSELL        CLEAR     75  59  57 E7        29.81S
$$

KSZ061>065-074>080-084>089-270200-
SOUTHWEST KANSAS

CITY           SKY/WX    TMP DP  RH WIND       PRES   REMARKS
DODGE CITY     CLEAR     77  58  51 E9        29.83F
ELKHART          N/A     78  47  33 MISG        N/A
GARDEN CITY    CLEAR     77  55  46 E15       29.82F
GREAT BEND     CLEAR     79  57  46 E7        29.82S
LIBERAL        CLEAR     79  55  43 SE13      29.82F
PRATT          CLEAR     77  57  50 E7        29.82S
$$

KSZ066>073-081>083-090>101-270200-
SOUTHEAST KANSAS

CITY           SKY/WX    TMP DP  RH WIND       PRES   REMARKS
CHANUTE        CLEAR     81  64  56 NE6       29.78R
COFFEYVILLE    CLEAR     82  69  64 E5        29.76R
HUTCHINSON     CLEAR     80  61  52 NE5       29.79S
MEDICINE LODGE   N/A     80  60  50 E6        29.78S
NEWTON         CLEAR     78  62  57 NE5       29.81R
PARSONS        CLEAR     80  69  69 CALM      29.78S
WICHITA INTL   CLEAR     81  62  52 E9        29.78R
WICHITA JABRA  CLEAR     79  63  57 E7        29.79R
WINFIELD       CLEAR     83  61  47 E7        29.78R
$$

KSZ007>012-019>026-033>040-048>060-102>105-270200-
NORTHEAST KANSAS

CITY           SKY/WX    TMP DP  RH WIND       PRES   REMARKS
CONCORDIA      CLEAR     76  56  49 E5        29.81S
EMPORIA        PTCLDY    79  66  64 NE3       29.79R
LAWRENCE       CLEAR     82  65  56 NE3       29.78R
MANHATTAN      CLEAR     79  62  56 CALM      29.79R
MARYSVILLE     CLEAR     79  55  44 NE5       29.81S
OLATHE IND     CLEAR     79  64  60 N5        29.80R
OLATHE EXE     MOCLDY    79  64  60 E5        29.80R
SALINA         CLEAR     82  57  42 E8        29.80R
TOPEKA BILLARD CLEAR     83  63  50 CALM      29.78R
TOPEKA FORBES  CLEAR     83  63  50 NE3       29.79R
$$




USA.gov is the U.S. government's official web portal to all federal, state and local government web resources and services.